User: anonymous   Login
Location: Buckeye Ditch
(40.9104°N, 122.9517°W)
Time: 00:03:19
(UTC+00:00)
Language:

NOSS 7 (E) - Orbit

View from above orbital plane
View from above orbital plane
View from above satellite
View from above satellite

Ground track
Ground track

The orbit data is extracted from the following two-line orbital elements,

1 16624U 86014E   24175.53995235  .00008269  00000-0  70027-3 0  9992
2 16624  63.2998 279.8332 0868835 102.7988 267.1471 13.60445471250005
Epoch (UTC): 23 June 2024 12:57:31
Eccentricity: 0.0868835
inclination: 63.2998°
perigee height: 390 km
apogee height: 1678 km
right ascension of ascending node: 279.8332°
argument of perigee: 102.7988°
revolutions per day: 13.60445471
mean anomaly at epoch: 267.1471°
orbit number at epoch: 25000

The dashed part of the orbit path shows where the satellite is in the earth's shadow,  

DLR